GFSSW_500_spd_102.txt.gz
Wind_Speed
10 7 8 7 5 4 9 15 20 22 22 23 24 24 25 26 28 30 31 33 31 34 33 34 35 36 38 39 43 45 46 44 42 41 38 33 33 40 43 41 49 54 35 47 51
7 6 3 4 7 5 6 10 17 19 20 21 23 23 22 23 24 25 30 31 33 35 34 35 36 36 35 36 38 42 44 44 41 41 42 45 44 49 52 43 48 47 42 43 47
3 3 3 2 5 8 9 7 11 16 19 19 20 21 21 22 23 24 23 26 28 31 34 34 35 36 37 38 38 38 41 40 37 37 48 49 53 52 51 50 50 46 42 45 47
3 1 4 2 4 6 10 13 12 13 17 19 20 21 22 22 27 21 23 23 24 25 27 28 29 32 32 34 35 39 39 38 39 43 54 44 48 54 52 49 50 51 46 48 47
8 4 2 5 6 6 7 11 15 18 19 19 19 20 21 22 22 24 24 23 23 23 25 25 26 28 29 29 31 35 35 37 40 42 48 40 43 45 46 49 49 45 45 46 43
9 10 7 6 6 9 10 9 11 15 18 21 23 24 24 24 17 24 23 23 24 24 25 25 26 27 28 29 29 29 30 33 38 41 41 38 39 39 38 37 40 39 35 39 38
17 11 13 11 9 8 9 13 14 13 13 16 19 22 24 25 24 25 25 26 26 27 28 29 30 29 27 29 30 30 30 28 31 32 32 36 36 36 35 36 39 40 35 35 36
20 17 13 14 13 13 12 11 11 15 18 18 16 17 20 22 24 25 25 25 26 27 28 29 27 28 31 29 31 28 30 31 29 31 32 36 33 33 33 38 41 35 36 36 36
19 18 16 15 18 16 16 16 15 14 14 17 20 22 22 20 20 21 22 23 25 26 25 24 26 27 27 26 26 26 25 24 24 24 29 34 33 31 36 38 38 38 39 38 39
19 18 17 17 16 12 20 18 19 19 19 18 18 19 20 25 24 25 26 26 25 26 27 27 28 28 27 27 27 23 23 24 26 16 34 38 39 33 36 41 39 38 42 41 41
17 18 18 18 15 16 15 12 15 19 21 22 22 24 21 21 24 25 26 27 28 30 29 30 33 32 29 31 29 29 27 29 22 18 28 37 36 31 35 39 41 30 31 33 33
16 18 20 19 17 16 17 18 18 17 13 14 25 25 28 26 27 26 25 25 25 24 26 29 27 26 28 30 30 29 32 34 29 31 33 36 34 31 30 30 31 31 31 31 31
16 16 17 18 16 17 16 17 18 18 19 20 18 18 21 32 31 30 29 29 29 29 30 31 27 25 32 32 32 33 33 30 31 32 34 33 36 35 31 33 35 36 35 34 36
16 15 12 11 13 14 16 18 20 21 21 21 19 16 18 19 21 38 33 34 33 31 32 31 29 31 34 33 32 34 32 31 35 36 38 33 39 32 23 30 33 35 33 35 37
15 15 13 9 11 12 14 14 17 17 15 16 11 13 13 16 14 15 24 44 34 33 37 32 35 35 38 35 33 34 33 34 31 34 38 38 41 36 30 30 31 31 36 40 41
15 13 12 9 10 8 10 11 12 10 6 14 13 12 13 15 15 14 16 15 18 31 43 39 36 39 38 36 38 37 37 38 38 37 43 37 37 34 30 27 27 28 35 39 48
15 15 12 11 9 5 3 2 4 5 6 11 15 7 9 11 14 12 14 13 15 16 18 20 25 35 45 44 40 37 34 35 37 36 40 26 25 24 16 27 30 36 40 48 54
16 15 16 14 12 12 9 5 7 5 14 14 11 12 4 9 12 18 15 15 16 17 19 18 17 17 19 23 27 32 30 32 35 36 36 30 33 29 20 32 32 33 46 51 53
15 14 14 15 13 14 12 9 14 14 9 9 12 13 7 15 18 19 19 20 15 22 24 23 23 25 28 26 27 27 30 28 42 46 48 42 40 41 31 38 32 39 46 51 55
15 13 13 12 12 13 13 12 14 15 14 12 13 15 15 23 19 27 22 21 19 24 31 29 30 27 28 34 37 39 34 38 40 42 40 37 29 30 36 41 43 45 44 51 52
17 13 13 13 12 10 10 9 12 14 17 17 18 18 18 22 23 24 24 22 21 20 27 27 26 20 26 29 33 36 36 38 38 39 42 41 37 21 32 31 33 40 47 51 54
21 17 14 15 15 13 13 13 12 13 15 17 20 21 22 21 22 25 25 28 23 23 24 23 23 25 21 23 28 27 31 37 39 43 42 44 47 38 37 42 45 46 49 52 51
25 22 17 15 16 13 14 14 14 16 16 18 19 19 21 23 24 24 25 28 27 25 27 24 28 26 23 20 22 26 27 30 37 44 43 45 41 40 42 40 39 43 45 50 52
26 23 19 18 18 18 17 19 21 17 20 20 20 20 21 21 24 24 28 29 31 28 27 27 28 28 27 24 24 26 29 29 30 41 46 43 39 38 41 44 45 46 46 47 52
27 24 21 19 19 20 19 19 20 24 21 22 22 23 23 22 23 23 25 27 28 28 27 29 30 29 30 31 30 32 34 38 44 44 46 40 43 41 42 44 44 45 43 48 54
33 27 24 21 21 21 21 22 21 23 24 25 22 25 22 24 24 24 26 25 28 30 31 31 32 30 31 34 35 39 40 39 40 40 41 42 43 38 40 42 42 43 49 49 47
29 29 29 25 23 22 23 19 21 23 25 24 24 24 25 24 24 22 24 24 26 26 30 34 33 35 37 34 36 42 37 38 36 34 33 37 36 38 39 41 44 45 43 39 41

GFSSW_500_spd_105.txt.gz
Wind_Speed
9 7 7 2 4 2 5 13 18 21 22 24 26 26 27 30 30 29 29 31 30 34 39 40 43 43 44 43 42 44 47 42 35 33 29 29 38 32 26 34 39 40 47 45 46
8 6 3 6 3 5 4 6 13 17 19 22 24 25 26 28 30 29 32 31 31 33 34 35 38 42 44 44 45 46 45 43 37 39 39 36 40 43 35 42 40 41 37 41 46
12 6 4 4 6 6 8 7 8 14 17 18 19 21 22 23 26 31 31 32 32 33 33 34 35 36 36 39 40 42 42 41 44 43 45 44 44 48 51 50 48 42 42 35 43
13 12 8 5 4 7 8 11 10 11 15 17 18 20 20 21 23 23 24 26 29 30 31 32 34 34 34 35 35 38 36 38 35 39 43 49 48 52 52 50 48 49 47 41 42
17 14 13 10 8 6 8 11 13 16 15 17 18 19 19 20 19 20 21 22 23 25 27 28 29 29 31 30 33 38 34 34 36 40 43 47 46 42 45 44 45 48 47 45 44
18 14 15 16 12 11 10 10 12 15 19 22 22 21 21 22 18 22 24 24 23 24 25 26 26 28 29 31 32 33 35 35 35 36 42 45 43 40 43 43 41 44 43 39 38
18 17 15 14 17 14 12 14 13 12 15 18 21 24 26 26 23 27 28 28 27 28 28 28 29 31 32 31 32 30 33 34 34 34 33 37 38 38 38 39 38 42 43 37 35
21 19 16 13 17 19 16 14 15 17 15 15 17 20 24 23 27 28 29 30 31 31 33 32 33 32 29 30 32 33 32 30 30 28 31 35 32 32 35 36 38 40 39 33 33
21 21 19 16 11 10 22 20 18 17 17 19 18 18 19 22 25 28 29 31 32 33 33 34 31 29 33 34 34 35 31 29 26 28 30 34 34 33 33 36 37 38 37 34 34
23 20 19 19 15 12 8 26 20 20 19 18 17 20 22 22 21 22 24 28 30 32 33 33 33 35 35 36 33 31 28 27 24 14 20 31 35 36 31 37 38 39 38 37 37
21 21 19 19 17 16 13 12 13 27 19 21 22 21 19 21 24 28 27 26 26 26 26 28 32 30 28 29 29 29 33 34 31 19 23 26 33 40 43 39 43 41 41 42 43
22 20 19 19 18 19 18 18 15 15 16 15 20 24 23 23 23 23 25 27 30 29 31 33 29 27 29 32 33 32 32 31 34 30 33 37 40 41 28 22 27 30 30 29 28
21 20 18 16 17 16 17 17 16 16 16 17 15 15 14 21 27 27 26 26 28 29 30 31 24 28 31 31 33 34 34 35 38 35 40 39 41 38 36 32 30 30 31 34 34
20 19 18 16 15 15 15 16 17 17 18 18 18 18 20 22 19 23 29 29 32 30 31 30 27 29 31 33 33 33 31 33 35 33 38 40 45 40 36 31 30 32 34 31 31
19 17 15 14 13 13 15 16 16 17 18 14 12 11 15 17 18 21 22 21 37 34 38 32 34 37 38 37 37 35 33 35 37 38 38 39 43 40 32 33 29 28 30 31 34
19 17 15 14 13 13 12 15 17 15 13 11 11 12 12 10 13 13 15 17 15 34 43 33 35 36 34 36 38 35 36 38 39 40 45 39 36 36 28 25 21 20 23 29 38
19 17 15 14 15 12 9 7 7 8 9 8 10 5 7 9 9 13 13 14 14 16 19 29 39 45 41 36 33 33 36 36 39 41 46 36 39 34 17 16 31 29 33 33 43
18 18 15 13 15 15 13 11 8 11 8 13 13 13 7 4 9 9 9 13 16 17 17 17 20 16 15 29 30 45 46 48 48 44 43 39 43 35 26 32 31 31 39 36 46
19 17 16 13 13 15 13 11 15 17 14 13 9 17 10 11 14 13 16 16 13 14 19 19 17 18 19 21 23 26 25 26 36 36 39 37 32 27 33 40 32 29 36 37 42
20 17 17 14 12 12 14 14 18 21 15 16 14 17 20 22 26 21 20 21 21 20 19 22 19 19 25 27 29 31 28 30 36 39 38 37 31 30 33 43 45 47 41 46 45
25 19 18 17 15 13 14 12 17 16 19 17 19 19 21 20 23 21 23 24 22 23 22 23 24 20 25 27 30 32 35 40 43 46 44 41 38 35 30 31 38 42 47 50 48
28 25 20 20 17 16 17 17 18 17 15 17 20 21 25 23 21 26 27 29 24 18 25 24 27 27 22 21 28 31 30 35 38 38 40 41 39 28 36 42 44 46 48 46 49
28 29 22 22 20 18 19 22 26 15 14 16 18 18 20 23 24 26 28 30 28 26 27 25 28 29 26 24 28 27 28 30 33 39 40 43 42 34 35 41 44 42 46 47 51
27 28 28 24 25 23 21 18 15 14 17 17 19 19 21 21 23 24 25 30 29 28 29 32 30 29 28 25 27 29 28 28 32 36 38 38 36 37 39 41 43 43 45 48 48
26 29 27 26 26 21 21 20 21 21 14 17 23 23 20 21 23 23 25 27 29 24 27 28 29 29 29 28 27 30 32 34 36 38 43 39 42 41 41 42 44 47 49 47 49
26 27 25 34 27 22 25 25 24 24 17 21 22 22 20 22 22 23 24 25 23 26 25 24 27 27 28 30 31 31 34 32 34 37 41 43 46 43 43 47 48 47 48 48 49
25 29 29 31 30 24 30 29 25 21 21 20 21 22 22 19 22 23 23 24 23 23 27 24 25 27 30 31 34 35 32 34 35 36 39 39 40 43 43 42 42 42 43 42 43

GFSSW_500_spd_108.txt.gz
Wind_Speed
16 14 13 11 10 8 10 4 8 16 23 27 29 27 29 33 33 33 33 35 39 44 46 49 48 46 42 39 38 42 40 33 32 36 29 35 39 43 42 40 32 34 39 42 40
15 15 13 11 10 8 5 6 7 12 18 23 24 24 27 33 33 31 34 34 35 40 43 46 49 50 47 46 43 44 40 32 30 33 34 40 40 37 36 33 40 41 41 41 38
20 14 13 13 8 7 7 6 4 9 12 15 19 22 23 29 31 33 33 33 34 37 39 42 46 47 48 49 49 50 46 40 39 39 43 40 40 40 38 42 45 42 42 42 38
13 14 15 12 12 8 7 8 8 8 12 13 15 18 21 22 27 31 32 31 32 32 33 36 40 41 42 44 45 48 44 44 42 44 46 46 47 47 47 45 46 45 45 43 41
14 11 11 14 12 13 9 8 10 12 14 15 16 17 17 19 22 23 24 28 30 29 29 31 34 35 37 35 39 42 41 41 38 41 46 47 49 49 48 46 47 46 44 43 41
19 15 12 11 14 14 14 11 10 13 16 18 19 19 19 20 18 20 22 23 24 26 27 28 26 29 33 35 41 38 39 40 39 39 41 43 43 43 39 39 39 42 44 45 45
21 20 16 13 13 15 15 15 13 13 15 18 22 25 26 25 23 24 25 25 25 26 26 28 29 30 31 33 38 39 37 38 38 38 40 43 40 37 32 37 41 43 44 45 43
27 23 21 16 12 12 16 17 16 17 15 17 19 23 26 26 28 31 31 30 30 30 31 33 33 34 35 33 33 33 34 35 35 34 30 33 39 32 33 40 42 44 45 44 41
25 26 23 18 14 11 9 22 20 18 18 19 18 21 20 25 29 30 28 31 32 34 35 35 34 33 30 31 33 36 36 32 26 29 29 34 34 30 34 35 38 41 39 41 39
26 24 23 19 14 14 14 14 27 21 19 18 21 21 20 21 23 27 29 31 31 33 34 34 34 33 34 37 35 33 33 30 31 30 35 37 40 37 34 37 38 41 40 40 39
25 23 22 22 16 18 16 15 14 23 21 21 20 20 22 22 24 23 26 30 32 34 32 33 35 32 33 35 34 36 37 35 35 35 39 39 40 39 39 40 43 41 41 41 40
26 23 21 21 20 19 17 19 20 17 16 30 23 24 23 22 24 28 28 26 26 28 33 35 29 29 33 34 35 37 39 39 34 36 41 40 41 43 45 44 44 36 35 37 36
26 27 23 22 20 18 19 19 17 19 18 20 18 15 24 26 26 25 25 28 30 33 32 30 26 30 30 32 33 34 34 33 35 36 40 41 43 43 44 43 26 20 25 26 28
25 25 23 20 19 18 19 17 11 13 18 21 19 20 18 17 20 29 31 30 29 29 31 34 34 36 40 41 41 40 38 39 40 41 39 40 45 40 38 32 30 24 26 32 31
24 23 23 21 19 17 17 17 15 14 19 21 20 20 22 20 24 24 27 23 34 34 36 30 34 39 39 37 39 39 37 38 38 39 36 33 41 37 34 32 27 28 34 37 38
24 23 21 19 18 16 16 16 16 17 17 17 17 17 15 16 17 20 22 22 23 33 38 35 34 39 37 35 38 38 38 38 37 37 40 35 39 40 28 29 36 40 43 41 39
25 22 21 19 17 16 16 15 12 13 15 16 16 17 15 17 17 17 18 18 19 20 21 22 34 36 35 33 34 36 36 38 39 40 43 37 38 42 29 37 43 44 41 38 34
26 24 21 20 16 15 15 14 12 13 11 17 15 11 7 11 14 16 17 15 15 16 16 16 22 34 42 39 34 38 39 42 45 44 42 39 45 42 34 36 38 43 38 37 36
28 25 23 21 18 14 14 17 14 17 20 21 15 10 16 17 18 17 18 17 17 17 15 14 8 15 17 21 23 30 42 46 47 49 47 44 40 38 36 44 42 45 42 40 39
29 27 25 22 18 17 14 17 20 23 22 20 18 22 19 18 15 16 14 13 13 10 8 10 10 17 17 18 21 22 23 28 31 34 35 35 28 23 25 31 31 33 39 43 42
28 26 26 24 22 19 16 19 21 25 25 26 25 26 25 24 21 23 24 25 20 16 13 15 15 14 21 23 23 28 30 32 33 39 41 40 33 29 30 33 35 35 30 39 44
26 26 27 23 24 21 22 23 20 26 24 27 27 26 23 19 20 22 28 28 25 23 22 23 23 18 19 22 26 28 32 32 35 39 43 43 39 35 34 35 36 34 40 41 40
24 25 27 26 26 27 27 24 24 30 16 22 21 19 18 19 22 24 26 29 27 26 28 27 28 25 22 25 27 28 29 31 32 34 35 40 40 32 32 35 38 36 38 42 48
26 25 26 28 30 32 28 25 24 26 22 17 19 19 18 18 19 21 26 26 22 22 27 27 28 28 27 28 29 31 31 32 36 38 36 35 35 34 41 36 40 40 41 43 48
25 26 24 26 28 34 26 24 26 24 13 19 21 16 16 17 19 22 23 24 23 22 24 27 27 28 28 27 29 30 32 33 33 34 37 33 36 37 39 40 43 45 46 48 48
25 24 23 23 27 28 29 26 33 32 23 20 21 18 17 17 17 21 23 24 25 24 23 23 24 26 27 27 30 31 29 32 34 35 37 41 38 40 43 46 46 48 48 50 51
25 26 25 26 31 31 31 33 37 31 24 21 21 21 18 15 19 21 23 24 26 24 23 21 23 24 24 25 30 29 31 33 36 38 39 40 42 44 43 46 48 46 45 44 44

GFSSW_500_spd_111.txt.gz
Wind_Speed
18 20 19 18 17 17 14 11 10 10 10 8 20 27 31 34 35 36 38 40 44 52 60 43 47 45 44 41 36 43 51 47 40 33 30 39 47 48 49 50 50 49 47 43 37
20 20 18 17 15 14 13 10 6 6 6 9 18 28 32 34 35 38 37 39 44 47 51 51 47 43 46 41 39 37 37 41 41 43 47 43 44 50 49 51 50 51 52 52 46
20 19 20 19 14 13 12 10 6 1 4 9 12 16 22 29 35 35 36 38 42 45 48 48 47 47 43 45 42 42 33 32 41 41 41 41 37 40 40 44 45 48 49 47 41
23 19 18 18 17 13 11 9 8 7 6 8 12 15 17 24 30 33 33 36 40 44 45 47 47 47 48 47 45 43 37 37 34 35 37 37 37 41 40 39 43 41 41 41 38
29 24 18 18 16 16 13 11 10 10 12 12 13 16 17 17 23 28 30 32 34 37 40 45 46 47 49 49 49 48 44 42 39 40 41 41 42 40 40 41 44 44 43 44 44
27 27 25 18 18 17 16 12 12 12 13 17 16 16 18 19 18 22 26 27 30 31 34 37 37 39 45 48 51 51 49 49 48 49 49 50 48 46 44 45 45 46 46 47 46
26 25 26 24 18 17 16 15 13 13 14 16 21 22 20 21 20 21 23 25 28 29 30 32 33 36 39 42 48 49 48 50 48 48 49 50 50 50 43 45 44 46 47 47 47
28 25 25 24 20 17 17 17 15 15 16 17 19 22 23 23 24 26 25 26 28 29 31 34 36 37 38 42 44 43 41 41 38 40 42 41 38 37 39 39 41 43 47 48 50
29 26 24 25 21 17 17 12 20 18 17 19 19 21 22 26 29 29 29 31 32 32 33 34 33 34 34 35 36 36 34 35 36 34 35 38 42 41 43 47 47 49 48 51 51
27 27 24 23 24 18 20 20 19 23 21 20 22 21 22 26 28 29 30 30 32 34 35 34 33 33 33 34 33 33 34 33 30 35 39 43 45 44 45 47 45 46 48 50 50
29 26 26 23 24 25 18 22 23 21 26 25 21 23 22 23 24 29 30 32 34 34 34 35 35 34 29 32 34 36 37 36 32 37 40 41 46 46 44 44 43 43 47 47 42
31 26 26 25 23 25 23 19 23 19 19 28 23 22 22 25 25 26 29 32 33 33 33 34 34 30 33 36 35 36 38 38 34 37 42 41 42 44 42 41 42 43 42 40 41
33 27 25 24 23 24 23 21 13 20 23 25 24 30 26 27 27 26 28 27 27 31 34 33 30 35 35 36 36 37 38 37 35 33 40 39 39 37 39 39 41 40 35 31 35
35 30 25 25 24 23 22 18 14 16 25 26 24 26 30 33 29 28 29 29 31 29 29 29 33 34 36 39 40 39 38 38 38 35 36 39 39 37 38 41 41 38 28 29 33
36 32 28 25 24 24 22 19 16 18 23 26 27 24 21 21 25 28 33 31 28 30 35 30 34 35 36 36 37 34 37 38 38 39 40 41 46 41 42 44 39 31 29 33 37
36 31 29 27 23 23 21 20 18 19 23 23 26 26 27 26 26 25 26 30 34 38 36 33 35 38 39 38 40 40 41 43 43 44 44 43 46 44 38 36 36 36 38 37 38
36 31 30 28 25 22 22 20 19 19 19 23 22 25 25 23 22 24 28 29 28 28 27 36 36 36 36 36 37 39 38 39 40 41 41 39 40 42 41 35 38 43 45 41 40
35 31 31 30 25 23 22 20 19 19 15 23 26 25 21 22 23 22 21 24 27 27 27 25 36 42 42 40 36 38 38 40 42 42 42 42 44 44 42 33 38 42 44 45 42
33 31 32 31 26 25 22 20 18 16 17 21 25 25 25 23 24 21 20 21 25 23 16 16 17 18 24 32 38 39 41 41 43 45 45 46 46 44 42 39 41 47 47 45 40
31 31 32 29 28 24 23 18 19 22 26 21 27 24 22 21 22 20 23 22 19 14 13 15 17 19 16 18 19 23 33 39 37 41 37 34 29 25 23 26 31 32 35 38 37
29 30 28 29 28 26 23 20 20 28 23 30 25 23 23 17 19 22 23 19 16 14 14 14 16 16 18 19 21 25 28 29 29 33 36 35 32 27 28 28 28 29 32 34 35
27 25 26 28 29 28 24 23 22 28 31 28 28 32 28 23 22 23 22 21 20 21 19 17 19 18 17 22 23 24 26 28 30 31 31 31 29 29 29 32 34 35 37 38 37
25 23 26 27 29 29 27 30 27 29 32 34 35 29 29 28 25 22 22 25 24 21 22 25 24 21 21 22 25 26 26 27 30 31 32 32 30 28 29 31 33 35 36 36 38
25 27 27 26 27 31 30 31 29 29 35 28 37 29 27 24 24 23 24 24 23 26 30 27 26 24 24 26 26 28 30 31 31 33 33 33 31 28 32 35 34 36 41 41 43
28 29 28 27 27 29 31 30 29 29 32 26 23 25 21 18 20 21 20 20 22 25 26 27 26 25 25 26 29 29 29 29 32 33 35 32 33 33 35 38 36 37 39 41 42
28 25 27 28 25 25 30 31 31 30 30 24 21 19 19 21 22 22 24 25 25 24 25 25 25 25 25 27 27 28 27 30 34 34 37 37 35 36 38 39 38 39 41 43 46
24 24 27 27 28 27 28 33 35 36 29 22 20 19 21 22 24 25 24 24 23 23 23 24 25 26 22 23 23 23 24 27 29 33 36 39 41 41 43 45 46 46 47 47 49

GFSSW_500_spd_114.txt.gz
Wind_Speed
28 23 21 23 23 22 21 21 19 17 13 16 14 4 19 24 30 40 43 43 46 53 56 64 54 54 57 52 46 62 55 54 50 43 41 39 43 50 48 49 50 48 45 41 40
29 25 21 21 22 22 20 20 15 16 10 7 13 6 16 21 26 33 38 42 45 47 52 60 63 45 57 52 40 47 55 52 48 43 41 44 42 52 50 50 50 48 48 45 43
31 29 24 20 21 21 20 19 15 12 11 3 3 8 12 22 28 32 36 39 40 42 49 61 69 45 40 46 48 39 45 51 45 44 48 47 41 51 52 52 51 52 50 46 42
32 27 26 22 20 20 19 17 16 11 11 10 7 7 8 18 25 34 34 37 40 41 46 55 59 55 39 33 35 45 37 41 55 49 52 48 50 47 52 51 50 47 45 43 42
30 27 26 25 20 20 19 18 15 13 9 13 11 11 11 12 19 28 32 35 37 40 45 44 48 51 52 42 35 34 38 41 36 36 44 50 49 43 42 40 43 39 40 37 38
30 29 24 25 23 19 20 18 17 15 12 12 15 14 15 14 12 19 27 30 31 34 41 44 42 44 45 43 40 37 38 40 40 38 35 39 40 39 33 34 36 37 35 36 39
34 29 27 25 23 21 18 18 17 16 14 13 16 18 18 18 18 19 22 26 28 30 33 35 32 35 42 45 46 45 43 41 39 39 41 41 38 38 36 37 36 38 42 44 45
38 32 28 26 25 22 18 18 17 19 17 15 16 19 21 20 23 23 24 26 28 29 32 35 35 37 39 40 44 47 46 45 45 45 46 44 40 38 37 38 40 45 48 49 51
38 37 29 27 25 24 22 18 21 20 20 18 17 20 22 24 26 28 29 29 30 31 33 33 35 38 41 40 42 45 43 41 39 41 42 44 43 40 42 43 45 49 50 49 51
37 39 34 26 27 25 24 19 20 19 19 20 20 21 22 27 27 28 30 30 31 32 33 33 34 34 34 35 37 36 32 32 32 35 36 40 44 40 42 48 49 48 46 45 50
36 37 37 30 25 27 25 22 18 23 22 21 24 24 22 23 27 30 30 30 31 34 34 33 32 30 30 31 31 31 32 34 34 36 41 44 47 45 44 47 47 45 43 46 50
37 37 38 35 27 27 24 23 19 18 24 26 26 25 25 26 26 30 34 34 33 32 31 31 32 31 30 33 34 38 39 37 35 37 44 45 47 47 44 46 45 42 41 42 46
38 37 38 38 31 27 25 23 20 20 24 28 26 31 29 29 30 28 27 31 34 35 34 33 30 31 33 35 36 36 36 34 34 36 42 43 44 43 42 38 38 38 38 39 37
37 37 38 39 34 30 27 24 23 23 24 27 27 27 29 29 32 32 31 30 30 31 34 35 33 35 36 37 37 36 37 36 35 35 38 37 38 37 38 36 37 37 35 36 33
40 40 38 40 36 31 30 27 25 24 24 27 32 32 25 39 34 32 33 33 31 30 31 28 31 35 37 36 38 38 39 37 36 35 37 37 39 33 37 36 37 38 38 38 35
42 41 41 41 35 32 29 28 26 25 24 24 27 28 28 27 36 40 36 36 33 34 36 32 33 34 34 33 36 34 34 34 34 35 36 37 39 36 34 37 37 40 42 42 36
44 46 43 36 37 31 29 28 26 25 23 24 23 25 26 26 26 32 35 37 36 35 32 31 35 37 37 36 37 36 35 35 36 37 37 37 39 41 42 41 41 40 42 41 39
46 46 38 36 35 32 30 29 27 23 21 23 27 27 28 28 27 23 23 30 31 30 34 39 37 36 37 36 36 36 37 38 40 39 38 38 39 40 40 37 36 35 39 42 43
45 42 34 36 32 33 31 29 21 20 20 24 26 30 28 28 28 26 24 24 27 26 25 25 25 37 43 38 38 37 37 35 37 41 41 41 40 39 38 38 38 39 42 45 46
39 35 31 31 30 32 32 26 22 19 19 26 29 29 28 29 28 28 27 28 28 26 23 21 19 16 17 28 38 40 38 39 41 43 44 44 41 39 37 42 43 41 45 47 49
32 28 27 29 28 31 30 24 21 21 28 25 36 35 31 27 24 26 26 23 21 20 20 19 18 14 16 17 17 21 23 26 31 35 35 31 27 24 26 26 27 28 31 35 36
25 24 24 26 26 28 29 25 24 25 28 30 28 30 32 24 23 22 20 17 17 18 18 20 17 16 18 20 22 24 25 25 29 28 29 30 25 23 23 24 27 31 36 40 40
19 24 23 28 26 26 29 29 29 28 30 38 33 35 29 28 26 25 22 23 26 23 24 24 20 19 21 22 22 23 23 23 24 25 27 27 24 23 25 28 30 33 35 36 38
22 25 26 27 24 28 28 29 30 31 31 32 30 32 30 35 27 24 23 22 22 26 23 25 27 24 24 25 25 26 25 25 26 28 27 29 25 25 28 30 32 34 34 35 37
26 26 26 26 25 24 27 29 30 34 36 29 26 26 29 24 22 22 23 24 25 25 25 28 29 26 25 25 25 25 26 28 29 30 32 28 31 28 30 33 33 33 35 37 38
23 25 26 25 22 26 30 30 28 30 29 30 24 28 26 19 22 24 27 25 25 25 25 25 23 23 24 26 26 26 26 29 29 28 32 32 31 33 32 34 34 35 37 39 42
21 21 22 24 27 21 25 27 26 26 25 30 25 19 26 25 25 26 25 23 21 21 21 22 23 24 24 25 25 23 22 24 25 26 28 30 33 33 35 38 40 40 41 42 44

GFSSW_500_spd_117.txt.gz
Wind_Speed
29 28 28 27 23 23 24 24 24 24 23 24 24 25 29 23 24 31 34 32 42 57 68 64 72 60 54 58 56 54 63 55 53 51 50 50 48 51 53 54 50 48 46 42 39
33 30 28 27 24 22 24 24 23 23 22 21 20 17 19 17 14 14 23 39 43 53 61 70 72 66 64 63 63 56 58 58 54 50 51 51 49 48 48 54 55 51 48 47 44
37 32 28 26 27 22 23 24 23 21 20 19 17 15 6 11 14 17 32 41 42 49 54 66 69 61 68 55 63 57 50 59 55 52 51 52 51 46 43 51 57 53 51 48 45
37 33 28 27 26 25 22 23 23 21 19 18 16 13 6 4 12 23 28 33 38 44 47 54 63 66 67 43 53 59 52 57 60 56 55 54 53 49 45 49 52 49 48 48 47
41 36 32 27 26 25 22 22 23 21 20 16 15 13 12 10 9 14 25 31 36 38 41 46 48 57 68 60 44 60 59 49 58 60 59 59 57 54 51 50 50 50 49 47 41
41 38 35 31 27 27 23 22 22 21 20 17 16 13 14 16 11 12 19 29 31 35 37 41 43 45 47 52 54 40 55 47 50 54 55 55 53 54 49 51 51 52 49 41 42
41 41 38 32 29 25 25 22 22 21 20 18 16 16 14 20 18 19 18 23 28 31 33 35 36 41 42 48 56 46 37 38 41 38 46 53 55 54 42 48 43 41 41 44 43
40 39 39 39 32 25 25 22 21 22 20 21 18 17 19 15 20 21 24 24 26 29 32 36 37 38 40 44 43 51 43 30 34 32 35 40 44 46 42 49 42 37 37 39 42
39 36 36 37 38 30 26 24 20 21 24 22 21 18 22 19 22 23 27 30 29 29 30 32 35 40 40 39 43 44 38 37 34 34 35 34 33 31 36 37 35 38 39 39 40
38 35 35 35 36 36 29 26 22 21 22 22 24 22 21 24 25 26 28 30 31 30 30 31 31 33 38 40 39 42 47 42 36 35 36 37 37 33 34 35 40 42 43 43 42
39 36 35 35 35 37 34 26 26 22 22 28 24 27 24 24 28 29 30 30 33 33 31 31 32 29 29 28 29 31 31 31 28 30 33 35 38 35 38 40 43 46 46 42 39
44 41 37 35 37 38 35 30 27 26 24 27 30 25 27 27 28 32 32 31 30 31 34 34 30 28 28 29 28 30 30 29 30 33 36 39 40 40 39 41 43 42 38 37 37
46 42 38 38 37 39 39 32 31 31 27 28 31 33 31 32 30 30 32 34 32 32 30 28 27 26 27 26 26 28 30 32 32 33 38 38 41 41 37 37 38 39 37 37 39
50 46 41 40 40 40 41 35 34 33 32 25 29 31 32 36 33 33 31 33 38 37 35 33 30 29 29 29 29 31 32 32 31 31 35 37 39 37 37 36 35 36 36 35 37
54 49 43 44 44 46 40 34 34 32 35 29 29 33 33 35 31 33 33 35 35 36 38 35 35 35 36 35 36 35 34 33 33 33 36 37 39 36 37 37 35 36 38 38 40
53 46 44 48 45 44 36 32 33 31 30 25 26 31 34 35 39 36 36 37 34 37 36 35 36 39 40 39 38 38 37 37 37 36 36 38 39 39 36 37 36 35 38 40 38
50 46 48 48 41 36 32 32 34 34 25 26 26 26 29 33 32 49 41 41 43 43 40 39 40 41 41 41 41 40 38 38 38 38 39 39 38 40 38 39 38 36 37 38 40
46 45 47 41 37 30 30 32 36 26 26 23 24 28 28 29 31 29 49 43 43 39 34 38 39 40 40 39 38 37 35 34 33 35 35 34 37 41 38 37 38 38 39 39 42
43 46 40 35 28 28 29 34 27 23 24 21 24 25 28 31 32 32 37 46 45 39 37 37 37 37 37 36 36 36 35 34 34 35 36 38 39 42 42 39 37 38 37 38 39
40 44 30 24 25 29 30 26 24 23 22 21 24 24 27 29 32 32 28 31 37 34 33 33 38 37 35 34 37 38 35 35 38 39 40 40 39 39 38 38 34 38 40 40 41
40 31 22 20 27 28 26 21 23 24 25 22 25 27 28 27 25 26 27 22 24 28 28 28 26 25 27 32 38 40 41 39 36 36 38 40 40 36 35 34 32 33 36 37 38
28 13 20 22 23 22 19 19 20 26 26 30 38 34 35 27 28 29 26 22 20 22 25 26 25 22 21 20 21 23 29 31 34 31 29 27 25 22 20 22 26 31 33 35 37
14 14 20 22 18 20 20 21 25 28 28 29 21 34 43 39 32 28 24 23 23 22 21 20 25 24 23 22 22 21 19 20 22 24 26 25 23 20 22 24 28 30 32 32 32
11 16 20 21 19 17 24 22 25 26 28 31 27 26 35 38 35 31 29 28 26 22 20 21 22 20 19 16 18 18 18 20 21 22 20 22 20 23 25 27 29 31 31 32 32
10 16 18 19 27 11 20 26 26 28 31 21 21 25 24 44 37 36 32 30 28 26 26 25 26 30 24 21 19 19 21 23 22 23 25 23 25 25 28 30 30 32 32 33 34
7 12 20 12 19 15 15 28 28 29 31 33 20 39 18 24 22 36 40 33 29 29 29 29 27 25 26 24 23 22 22 24 23 25 26 27 25 28 29 31 32 33 35 37 38
11 10 19 18 17 9 21 27 26 29 28 32 26 21 12 17 19 22 26 21 22 23 24 24 23 23 22 23 23 23 22 23 25 26 27 26 27 27 29 31 32 34 36 38 40

GFSSW_500_spd_123.txt.gz
Wind_Speed
30 29 27 23 25 23 24 24 24 25 26 29 28 32 35 37 37 36 35 40 42 40 43 46 50 53 55 58 66 66 69 68 62 59 34 40 41 48 47 48 51 52 44 47 42
33 33 32 28 27 25 23 25 25 26 26 27 30 30 34 37 38 34 41 39 38 39 41 46 48 55 61 65 70 74 71 69 56 48 43 30 42 52 52 48 53 55 54 54 52
34 33 33 32 29 28 26 25 25 25 27 27 29 32 33 36 37 37 39 37 37 38 39 40 43 55 65 69 73 74 75 68 55 66 60 52 48 57 58 49 45 43 49 53 52
41 39 37 37 34 28 26 27 26 26 27 27 29 32 34 36 37 32 39 36 35 34 33 34 44 57 69 72 75 76 77 69 69 68 69 64 65 57 59 52 47 53 57 51 51
45 44 43 39 34 26 26 27 27 28 29 30 29 31 34 35 35 36 36 31 32 27 28 32 44 55 66 69 69 68 78 69 74 75 75 71 65 66 61 65 64 62 58 51 47
47 45 44 39 32 27 27 27 29 30 31 31 32 31 32 32 39 36 33 29 28 20 27 33 41 48 54 53 59 70 73 81 62 80 72 72 65 65 65 63 68 63 59 55 53
49 47 47 46 39 31 29 30 33 34 33 34 34 33 31 29 38 35 31 27 26 19 20 28 35 41 45 48 50 50 54 77 66 71 70 67 65 57 64 59 68 64 60 58 57
53 50 49 44 39 33 31 34 35 37 37 36 37 35 27 36 33 34 32 28 25 22 22 27 35 37 41 38 48 56 56 73 67 61 74 72 68 59 66 69 66 59 59 57 57
55 53 51 45 41 37 34 37 39 39 41 40 38 36 29 36 30 33 32 29 27 29 24 31 38 39 41 45 46 58 43 58 43 37 74 73 67 59 67 72 71 65 59 60 57
60 60 58 54 46 40 36 37 40 42 44 44 39 39 34 35 34 30 33 33 28 34 35 32 35 41 47 45 45 56 42 41 35 30 51 71 69 60 53 62 73 71 65 59 56
63 61 58 54 47 42 41 42 44 46 44 44 44 39 40 36 35 32 33 35 32 35 39 36 34 40 45 45 48 34 30 33 37 30 48 41 53 57 61 63 67 74 68 62 61
66 63 60 56 53 52 48 47 53 50 48 44 47 41 43 36 38 36 36 37 35 31 35 40 36 34 38 37 37 35 28 30 26 33 38 38 37 28 51 60 50 67 71 61 62
68 68 65 61 58 56 55 54 57 60 56 48 43 43 40 35 39 38 34 35 34 33 34 36 31 37 41 35 35 33 27 28 30 32 33 32 43 43 30 38 53 53 58 56 63
74 73 68 63 58 54 56 56 55 53 57 51 42 43 45 39 42 41 34 34 38 34 32 30 27 30 32 33 31 30 30 19 22 28 26 30 27 34 34 23 23 32 26 32 35
75 71 66 59 48 45 50 50 46 44 47 31 37 41 40 38 33 39 37 38 37 34 37 31 32 32 32 31 30 27 26 26 23 26 21 22 28 29 26 29 31 24 27 32 34
67 56 48 39 37 40 43 39 33 34 45 25 33 26 37 33 34 38 43 39 35 37 35 30 31 32 29 30 31 29 21 28 29 22 26 24 21 20 26 28 25 29 31 31 37
50 43 39 39 33 33 30 26 31 36 23 18 26 25 29 29 35 40 43 40 42 43 41 35 29 33 33 32 33 34 31 24 24 27 26 20 25 18 10 22 26 28 33 35 31
44 40 40 35 30 28 22 26 31 14 21 20 24 28 28 29 33 40 40 39 43 41 36 41 35 38 36 36 35 40 33 26 23 25 19 20 18 19 27 38 26 27 29 31 33
42 40 39 33 35 23 26 25 12 21 25 19 12 23 23 24 33 40 41 38 42 40 32 36 27 34 38 36 34 33 36 29 17 17 16 23 24 29 36 39 32 31 32 31 31
42 42 38 23 12 16 22 22 29 33 15 29 20 26 28 38 35 40 38 41 45 40 34 25 26 32 38 39 36 29 27 32 25 19 26 17 19 17 28 36 32 33 31 29 32
42 37 17 10 6 9 14 15 23 28 22 16 30 31 21 33 33 33 36 35 46 45 43 31 31 29 32 43 32 33 31 31 26 23 22 23 17 26 31 33 33 29 31 32 33
37 14 11 8 12 12 1 14 20 24 17 23 30 33 30 22 27 30 27 32 35 50 48 38 36 32 31 30 32 27 29 31 28 28 23 23 27 21 29 32 35 26 27 35 37
18 14 7 8 6 6 9 15 22 32 27 19 30 32 35 34 29 26 27 25 26 49 55 52 46 33 36 42 41 39 31 28 28 26 24 25 24 28 32 35 36 34 32 35 37
8 7 5 8 4 3 12 16 19 30 23 18 17 21 33 36 31 28 26 26 15 16 48 52 49 38 33 26 29 33 27 27 29 30 24 26 27 31 32 34 36 35 34 30 28
10 5 7 2 8 8 12 14 23 27 26 20 22 19 33 36 41 32 25 24 20 23 21 23 41 39 36 35 26 32 33 32 31 22 32 29 27 18 25 32 30 32 25 26 29
6 7 9 8 12 7 11 16 17 23 16 15 15 17 26 33 35 41 25 24 25 29 30 32 27 16 24 20 21 19 18 22 34 31 21 29 26 30 29 25 23 25 25 25 30
12 10 15 12 15 10 7 21 10 22 11 9 11 13 11 26 40 35 33 29 27 28 30 34 36 35 32 27 27 28 23 21 21 22 22 22 24 29 25 25 26 27 28 31 33

GFSSW_500_spd_129.txt.gz
Wind_Speed
33 35 33 32 30 28 27 26 25 26 28 29 32 27 29 26 24 25 26 31 34 37 41 42 45 45 47 48 48 48 55 55 51 48 45 47 49 50 44 31 25 27 32 23 28
39 40 38 35 34 32 30 27 25 25 26 25 30 32 31 32 27 26 31 32 35 37 41 44 45 47 47 47 49 51 53 51 48 50 47 51 57 57 46 49 42 36 27 29 35
43 41 38 36 36 36 33 31 32 29 29 27 29 34 37 33 32 32 34 34 34 37 41 45 46 47 48 48 48 49 51 48 45 44 51 55 60 54 49 52 48 36 21 37 41
42 41 41 40 39 38 38 39 38 36 35 32 33 34 38 37 37 36 35 36 37 37 41 44 45 45 48 49 48 52 50 50 48 47 52 59 62 64 63 53 46 52 43 27 38
42 42 43 43 45 44 42 42 45 44 44 44 39 38 39 39 38 40 40 41 41 40 41 42 43 45 46 46 48 50 49 50 50 50 57 57 65 66 66 57 62 63 40 64 44
46 46 47 48 48 50 52 53 49 48 47 46 46 43 42 42 37 44 45 46 45 42 41 43 45 44 47 46 46 45 47 49 51 53 60 61 63 69 67 64 61 67 60 61 68
54 54 55 55 56 55 54 55 57 55 52 51 51 51 52 41 43 47 48 45 44 44 42 40 45 48 47 46 44 47 50 51 52 54 64 65 66 64 67 71 59 62 58 66 71
59 61 61 62 60 59 58 60 59 57 57 56 55 55 53 49 51 54 50 49 46 42 39 41 45 49 47 44 44 45 48 52 51 56 65 70 66 64 63 69 73 67 62 66 67
63 65 67 67 68 67 68 66 61 59 59 61 60 60 55 55 51 52 52 51 48 46 42 41 48 49 48 46 46 46 44 42 49 55 62 72 68 65 66 69 72 68 61 55 55
70 72 74 73 70 70 70 69 68 68 68 67 66 64 60 56 54 54 54 48 50 46 44 46 50 51 49 46 42 40 40 39 45 51 63 71 71 69 68 68 71 71 69 62 49
78 82 78 76 76 74 73 70 71 74 73 72 70 63 65 62 57 51 52 49 49 49 48 46 50 51 45 39 32 25 26 30 39 47 57 65 72 64 65 67 61 72 71 68 54
84 83 83 77 68 59 54 52 53 58 63 65 67 68 64 59 59 46 48 52 53 50 43 45 50 45 38 29 27 27 19 25 36 44 41 46 52 58 67 62 67 69 66 74 69
88 85 74 60 51 44 42 43 38 39 46 44 54 61 55 53 56 45 47 49 49 46 43 42 41 38 34 32 31 25 20 21 37 34 31 44 44 60 43 64 72 59 64 72 72
83 68 57 53 44 37 37 38 31 29 35 26 18 41 44 49 56 45 44 41 45 43 39 38 35 37 37 35 30 28 20 22 32 34 32 32 39 42 47 51 72 70 61 54 63
68 59 57 52 41 35 35 30 25 27 29 2 9 7 25 43 36 40 38 43 42 41 42 38 40 41 37 31 29 19 29 32 35 24 24 28 35 25 18 31 52 64 64 56 50
61 61 55 46 40 31 27 25 23 23 10 6 3 13 20 27 26 32 35 38 37 40 36 29 33 35 32 27 25 18 28 27 35 20 19 15 19 15 14 5 13 39 41 52 52
64 55 44 30 23 22 21 20 22 12 8 16 11 17 19 35 37 36 36 41 45 43 42 36 39 34 32 30 27 29 25 25 35 34 18 24 26 14 14 13 9 12 23 26 40
56 35 23 27 23 23 12 4 16 16 16 25 16 18 22 30 37 38 33 37 42 43 37 39 42 37 34 31 29 39 37 37 33 28 8 21 21 15 14 8 10 18 23 18 28
31 22 24 16 23 28 30 13 18 12 15 10 1 19 29 29 39 38 35 36 40 44 40 39 35 30 31 26 30 33 47 36 33 23 24 18 19 21 20 20 18 20 22 17 17
16 17 20 25 30 36 31 27 14 6 18 2 17 24 35 29 43 38 36 34 37 33 40 32 33 29 27 21 22 37 34 32 35 34 26 24 25 21 26 26 22 17 10 16 14
15 15 27 31 34 31 24 14 7 14 11 14 15 28 37 34 38 40 37 30 34 33 40 36 32 30 27 35 31 36 39 35 40 41 28 26 34 32 23 15 23 17 16 18 12
11 16 23 30 28 26 18 12 9 23 20 16 21 20 18 36 32 38 38 28 32 39 40 39 40 42 44 35 23 29 27 30 37 20 25 24 33 32 28 28 22 22 21 18 16
11 20 25 27 26 20 12 10 2 10 5 15 27 8 10 20 34 41 29 28 31 47 41 43 47 43 46 42 27 33 27 22 28 27 27 12 19 36 35 35 28 26 25 24 15
10 16 23 24 22 19 16 4 15 8 7 16 21 15 7 17 31 34 35 31 33 45 49 47 48 42 48 38 32 36 33 28 24 26 23 20 13 17 39 26 27 31 29 24 23
10 16 25 18 18 18 10 2 5 10 7 8 14 8 4 18 37 40 35 34 40 44 49 48 50 40 41 39 39 40 33 27 23 24 24 17 14 16 21 32 14 37 28 25 26
9 13 20 20 17 15 10 4 1 4 10 10 12 11 6 11 30 43 36 36 36 40 38 49 48 39 44 41 33 39 34 35 32 31 33 32 28 30 26 21 28 30 15 27 21
9 14 19 19 15 11 15 12 7 7 17 12 13 9 10 15 25 40 29 30 26 23 28 39 43 44 41 40 41 42 37 35 27 30 32 39 40 38 20 35 18 21 25 34 22

GFSSW_500_spd_132.txt.gz
Wind_Speed
33 36 38 39 38 36 34 34 33 33 31 30 31 32 35 36 34 29 27 35 35 36 40 42 45 46 47 48 51 54 53 48 45 43 47 48 49 48 53 45 47 46 40 42 27
40 40 40 40 37 38 37 36 36 35 33 33 32 32 33 36 36 34 37 36 36 35 40 42 44 48 47 47 51 54 52 48 45 44 44 51 54 57 56 52 53 52 37 35 33
38 40 41 41 40 40 40 40 39 39 39 37 36 37 33 37 40 40 43 40 38 38 41 43 46 47 49 50 51 52 51 50 49 47 47 49 56 58 51 55 54 58 44 41 45
44 45 44 44 44 44 44 44 44 44 44 44 43 40 38 38 43 46 45 45 45 42 42 44 47 47 47 49 52 54 50 50 49 47 42 51 57 62 57 52 59 62 54 47 43
51 50 48 49 49 50 51 51 51 51 51 50 50 50 47 43 42 46 48 48 50 47 45 45 46 48 48 47 50 52 50 51 50 48 45 49 58 60 63 61 58 66 63 54 54
53 53 54 57 57 57 56 56 57 59 58 57 56 56 56 56 43 49 49 53 54 52 49 48 47 48 49 47 47 49 50 52 53 50 50 53 54 60 60 66 62 64 67 73 61
58 61 63 63 61 60 60 61 61 61 62 63 62 62 59 56 49 53 54 53 53 52 49 47 48 50 50 50 49 51 54 57 55 53 53 58 59 57 61 63 68 66 67 70 66
62 65 65 67 68 70 71 72 69 69 67 68 69 69 64 59 60 58 58 57 53 52 48 47 47 49 51 52 51 52 55 56 53 54 56 61 61 60 59 62 67 70 70 65 66
67 70 72 74 76 76 75 75 72 72 72 73 73 74 70 66 65 56 63 62 59 53 51 51 51 49 50 54 55 56 54 55 52 52 56 60 62 59 62 63 62 70 74 70 67
74 77 80 78 78 77 76 71 69 73 75 77 79 78 68 68 70 62 65 64 62 51 55 56 52 51 52 57 57 55 54 52 50 49 54 57 59 59 61 65 65 65 74 75 71
82 84 84 81 72 64 57 50 52 55 56 62 71 76 73 72 71 65 64 60 58 58 58 56 55 55 54 52 50 47 47 42 42 41 43 44 51 57 60 66 68 65 70 78 61
85 87 81 69 57 54 50 47 46 46 44 42 41 50 57 56 67 56 56 57 60 58 54 57 55 50 45 46 45 43 38 35 38 40 42 44 47 51 59 66 70 69 70 75 77
87 80 67 62 56 48 45 44 40 40 42 19 25 22 28 48 54 50 53 49 50 57 54 52 48 43 43 44 41 37 35 36 36 36 39 41 48 52 54 62 72 73 72 74 74
79 68 66 53 38 35 35 35 32 31 26 7 12 11 22 36 53 47 48 46 50 49 48 45 42 37 39 38 36 33 35 31 26 28 30 34 44 49 54 60 63 74 75 74 70
67 61 36 38 31 27 28 26 23 19 12 6 8 8 18 29 34 42 43 45 47 46 48 46 40 39 38 35 38 31 27 24 22 24 26 31 38 29 29 40 57 64 72 75 64
59 30 32 36 29 25 24 19 14 16 18 14 15 10 3 32 44 45 41 41 40 40 40 37 35 34 34 34 30 27 26 25 25 26 32 22 29 17 24 18 21 42 56 60 51
33 25 28 31 36 33 21 15 17 13 15 12 12 9 11 36 42 43 43 45 45 45 41 39 34 35 36 35 35 32 33 30 34 36 15 13 18 8 15 17 18 23 34 41 49
22 26 36 38 35 34 32 23 20 12 9 12 14 20 11 40 42 42 41 41 40 39 41 40 44 42 41 41 36 36 30 36 43 27 11 14 11 12 19 25 29 27 27 33 43
20 26 30 36 28 24 24 22 17 5 9 14 30 27 20 41 41 42 35 38 36 42 42 41 40 37 41 32 35 36 39 35 31 25 19 15 19 15 19 21 22 31 23 27 31
16 28 32 29 29 21 24 21 13 12 6 26 28 23 20 40 46 44 38 41 38 36 40 38 33 36 33 35 36 35 31 39 33 28 17 22 15 18 20 20 18 16 12 16 20
19 27 31 28 27 26 23 16 2 14 17 28 28 25 27 39 44 41 35 36 37 37 37 34 36 32 35 42 40 38 39 39 30 34 29 23 21 22 19 22 18 15 11 10 18
18 25 26 26 21 22 19 15 8 5 29 31 27 23 26 33 39 40 37 34 35 36 34 34 38 36 36 35 33 32 36 37 35 36 33 28 25 29 23 13 15 18 13 10 13
17 25 26 24 18 21 18 10 5 19 21 24 22 16 7 21 33 36 36 28 33 38 36 42 42 39 34 33 31 31 33 35 31 31 35 31 27 25 28 20 24 21 18 16 15
15 19 25 22 19 19 10 2 17 21 24 16 16 17 11 20 26 40 35 30 33 29 39 42 44 43 39 32 30 28 31 30 23 29 35 28 23 19 30 36 34 31 23 18 13
16 23 24 18 20 19 11 17 18 22 17 16 12 12 18 26 32 41 35 30 30 42 43 45 45 45 42 37 30 28 26 28 27 29 34 27 25 21 43 44 39 30 23 22 15
15 17 21 18 20 14 14 10 13 19 19 17 11 19 21 34 34 33 41 32 37 48 46 44 44 43 39 38 30 29 31 31 34 33 22 19 16 17 34 33 43 27 23 31 25
14 17 19 15 10 11 15 11 9 16 22 13 16 15 24 26 32 36 34 35 41 47 46 38 40 40 37 41 36 37 35 34 33 29 22 20 20 21 6 10 28 29 17 28 12

GFSSW_500_spd_135.txt.gz
Wind_Speed
41 42 42 40 40 39 41 42 43 42 42 43 42 43 41 40 39 40 34 39 42 40 40 42 45 47 47 49 52 53 52 46 42 45 51 49 51 47 53 54 53 51 43 37 30
41 40 40 41 42 44 45 45 45 45 45 44 44 44 44 43 42 43 40 46 45 41 41 43 46 49 49 48 52 54 53 47 42 42 46 50 54 52 51 57 58 57 51 45 40
42 44 46 48 49 51 50 49 47 48 49 49 48 48 48 47 47 46 44 48 47 44 43 45 48 49 50 50 51 51 51 51 47 45 46 47 51 57 52 56 58 61 59 52 46
45 45 46 49 51 52 52 51 52 54 54 54 54 53 52 51 52 50 50 49 51 49 46 47 49 50 50 50 52 52 50 51 49 48 48 50 51 53 58 54 54 59 61 57 53
48 50 52 54 56 58 60 61 61 62 60 60 59 60 59 55 52 56 53 52 53 55 52 51 51 51 52 51 51 53 50 50 49 48 48 50 52 55 57 62 55 55 58 59 57
51 55 57 60 61 63 64 64 65 64 63 63 65 66 64 60 55 59 54 55 56 56 57 55 52 52 53 53 52 51 51 50 48 47 46 47 52 57 57 59 66 62 58 61 61
56 60 62 64 66 68 69 70 71 71 70 71 71 70 70 65 64 60 62 57 56 57 59 57 54 53 53 53 53 54 52 53 52 52 50 50 53 54 57 59 64 69 66 65 63
61 66 70 73 76 77 77 77 75 76 76 77 77 77 75 68 69 66 65 63 60 57 57 59 57 55 54 53 52 54 55 55 54 56 55 55 54 55 54 61 61 67 70 70 68
70 75 78 81 81 82 79 75 74 77 79 81 82 82 77 75 75 70 67 67 65 61 58 59 59 59 54 53 52 54 52 54 54 56 55 55 56 56 57 57 62 64 68 71 72
76 81 83 87 81 73 71 63 59 58 56 58 64 74 75 76 80 79 71 68 69 65 60 64 63 61 60 57 53 54 53 56 54 54 53 52 58 57 58 60 59 61 65 68 71
85 87 89 78 71 59 55 55 54 53 49 48 50 48 50 61 68 70 69 70 69 67 65 67 64 61 58 57 56 54 54 54 51 48 48 49 56 56 58 60 61 62 61 69 71
88 89 76 49 38 41 46 46 37 37 35 36 39 39 34 48 57 57 63 61 68 66 66 66 65 58 55 53 50 49 50 49 48 43 45 45 45 50 52 55 59 63 63 65 71
89 72 45 35 36 41 41 40 35 31 26 17 29 32 35 40 44 50 61 61 59 61 61 62 61 59 55 51 48 48 47 45 42 42 46 45 45 46 48 55 59 61 64 66 68
73 49 27 31 39 39 37 29 27 18 11 7 8 10 20 34 31 44 53 53 57 53 54 57 55 48 48 46 41 39 39 41 39 39 42 43 44 44 48 50 55 59 64 67 68
60 25 31 38 38 37 35 26 22 13 8 4 13 11 21 18 32 51 47 53 53 51 54 56 52 46 44 39 37 36 39 38 37 39 41 41 44 43 46 47 49 56 63 69 71
39 28 33 41 44 39 28 28 24 17 8 5 3 7 7 25 29 54 50 50 46 47 45 48 44 39 37 37 37 37 35 35 34 35 40 39 42 41 39 45 51 55 62 68 71
27 31 38 42 41 38 27 25 22 16 6 5 10 22 2 15 32 55 48 55 53 55 52 47 41 40 41 40 40 36 36 35 36 39 40 34 35 29 30 24 20 33 50 61 66
25 33 41 41 40 35 26 22 16 9 5 14 24 16 11 13 36 53 53 48 46 42 44 46 47 44 40 38 37 42 43 43 44 39 28 22 19 16 19 23 25 28 34 33 34
23 34 41 42 37 28 23 14 8 22 25 27 21 7 11 22 39 47 48 47 41 41 39 42 43 45 42 42 42 41 44 38 34 30 23 23 22 22 20 27 24 22 23 27 36
22 34 41 39 32 23 15 10 8 33 38 35 24 7 18 30 46 42 40 42 38 40 39 40 41 42 40 42 41 38 36 37 32 28 30 23 23 20 23 26 29 29 30 34 30
24 34 39 34 24 19 17 16 27 31 30 33 25 9 19 35 45 43 43 42 39 41 43 40 38 37 36 43 43 43 40 39 35 33 27 22 25 24 25 24 26 31 35 25 22
24 32 35 27 22 24 21 27 30 34 28 25 21 10 23 38 25 31 35 37 41 37 35 39 37 32 37 36 37 37 38 34 32 34 33 25 21 22 21 22 12 17 15 11 12
22 29 30 18 20 23 20 30 29 27 21 23 23 16 16 24 31 37 33 32 35 32 32 34 36 38 33 34 36 40 39 34 32 29 33 33 20 25 20 14 15 21 15 11 10
20 25 23 17 21 18 22 23 29 30 24 17 13 14 17 18 32 36 32 34 38 39 33 37 38 38 40 36 38 37 35 36 31 31 28 27 23 16 23 23 22 26 21 13 9
20 24 18 15 18 17 21 19 26 26 23 9 8 10 21 28 30 39 35 35 36 33 35 39 39 40 39 33 33 32 29 30 25 21 20 19 21 21 24 27 24 27 21 16 16
15 18 20 13 11 13 13 15 18 19 18 9 6 16 27 32 36 34 34 34 39 35 35 41 40 38 36 34 28 29 26 30 25 21 22 20 23 22 29 34 34 27 17 19 21
17 20 20 12 9 14 15 15 17 21 15 11 13 24 29 39 35 33 28 33 33 34 40 45 41 37 38 34 30 26 24 24 26 27 25 22 25 21 15 39 32 25 21 12 14

GFSSW_500_spd_138.txt.gz
Wind_Speed
38 37 39 40 41 43 43 44 46 48 49 50 50 50 48 49 48 49 44 48 50 45 45 44 45 48 49 49 52 53 53 47 43 45 48 50 50 49 50 49 53 53 48 41 39
40 41 43 45 45 46 48 50 51 53 55 54 53 54 53 51 51 51 51 51 51 48 46 45 45 48 50 50 51 53 54 49 43 41 44 49 55 52 53 50 54 55 52 48 39
44 46 46 48 49 50 52 55 56 57 56 55 56 56 56 55 52 54 54 53 53 51 48 49 46 48 50 51 51 50 50 50 47 44 44 46 53 59 54 54 54 56 56 54 47
47 47 49 52 53 55 56 58 61 63 63 62 60 59 60 59 58 56 56 57 56 55 52 53 51 50 49 50 50 51 47 48 50 48 47 45 50 56 62 56 54 55 56 56 55
49 53 55 56 59 62 63 65 65 66 68 68 69 68 67 64 59 63 60 60 59 59 56 54 55 52 50 50 52 51 49 48 48 48 48 48 50 53 57 61 57 55 53 55 56
54 57 59 62 65 67 70 73 74 75 74 74 75 75 73 70 67 67 66 63 63 62 60 56 57 55 52 51 53 52 51 49 47 47 46 50 50 53 55 55 60 60 58 55 54
61 66 70 72 73 74 76 78 79 81 81 80 81 81 78 70 71 70 73 68 66 63 63 59 59 59 56 51 52 54 53 52 49 48 49 49 50 51 55 57 56 60 64 58 57
73 78 82 85 83 81 79 75 70 70 71 77 82 86 83 77 81 77 71 71 69 65 63 62 60 59 58 55 52 53 54 53 50 50 51 51 48 52 54 58 57 57 61 64 62
87 90 92 90 84 77 63 48 42 42 45 52 61 70 77 81 83 81 74 73 67 66 63 62 64 62 60 57 53 51 51 52 51 50 52 51 52 52 53 58 60 58 59 61 65
93 94 92 86 65 45 38 39 42 43 48 50 47 51 50 57 73 81 78 76 71 69 68 66 64 63 62 61 57 54 51 51 51 50 51 51 54 50 54 55 56 57 57 59 62
95 92 83 56 38 37 42 47 45 47 46 43 36 38 43 47 46 51 65 73 70 69 69 69 68 64 61 59 58 55 53 51 49 48 51 49 53 50 51 55 56 58 58 57 59
92 84 58 38 37 44 53 52 48 43 35 30 28 26 38 43 37 38 49 54 65 66 67 69 67 63 57 54 53 54 51 50 47 47 48 49 51 50 50 51 52 53 56 57 59
86 63 38 37 42 51 51 47 42 35 21 13 16 19 25 31 27 31 34 42 53 63 65 63 64 65 60 56 54 54 53 48 44 43 43 46 48 49 48 48 48 51 53 55 58
70 45 34 42 49 49 48 41 35 27 11 14 6 8 14 24 27 32 32 37 49 51 59 62 66 59 55 54 51 50 49 46 40 40 43 43 45 44 42 43 43 47 51 55 57
58 35 40 48 48 46 39 34 30 23 15 5 2 5 3 7 19 33 32 42 46 48 60 63 63 55 52 47 46 45 40 37 35 39 37 38 41 40 41 41 43 47 50 53 57
42 38 43 48 44 42 32 32 22 18 15 5 6 9 13 11 13 26 32 41 49 52 53 58 60 48 45 44 44 40 38 35 35 36 37 37 38 37 38 40 42 46 48 51 55
38 40 47 43 40 35 29 28 28 21 22 18 19 22 12 14 20 26 32 47 54 57 56 53 53 47 50 47 45 42 38 38 37 36 36 37 39 38 31 39 42 44 47 51 55
37 42 45 38 34 31 35 36 36 40 33 24 13 15 4 5 11 15 32 43 49 49 54 55 51 51 48 47 45 45 42 41 40 38 39 36 38 29 32 34 38 41 47 50 55
36 41 41 33 30 38 39 42 41 42 34 21 14 17 13 7 9 17 38 41 42 41 50 53 45 47 43 44 45 41 40 39 38 37 34 30 22 24 29 31 29 30 32 36 40
33 39 35 27 28 34 38 40 37 39 35 28 21 15 7 9 16 37 36 47 38 41 45 44 45 44 46 46 44 38 38 40 38 38 35 31 23 29 25 20 22 24 26 26 27
33 35 28 24 26 32 36 34 38 32 38 27 23 18 12 14 29 31 37 36 33 43 44 40 45 47 44 45 44 46 44 39 36 33 29 26 29 31 23 24 26 26 26 26 23
29 31 22 24 23 30 29 34 33 31 32 30 21 15 8 22 33 32 35 37 40 42 42 45 49 44 45 42 41 43 42 42 36 32 29 25 28 29 27 23 28 25 26 23 17
25 30 22 18 19 25 23 28 32 32 29 27 15 6 14 21 17 8 22 34 34 36 43 37 42 43 36 37 41 41 39 37 34 28 24 27 25 25 23 22 24 23 30 23 15
21 23 24 20 20 24 22 23 25 25 26 18 7 7 4 4 12 23 22 35 38 37 36 34 36 40 37 33 40 42 39 35 34 31 27 30 25 17 20 21 17 18 20 18 15
25 21 23 16 16 23 24 23 24 19 25 17 7 2 7 18 25 20 34 36 33 28 32 32 33 35 34 32 34 34 35 33 32 26 27 26 21 23 20 16 21 21 24 25 16
32 18 22 22 17 23 21 21 21 27 26 19 5 3 12 15 26 22 30 34 29 32 33 31 31 33 31 30 29 29 27 27 22 26 28 21 18 20 21 13 20 23 24 21 20
30 21 20 20 16 17 19 22 22 25 20 20 6 9 18 24 23 22 24 30 27 27 35 31 28 32 32 29 28 25 24 25 24 24 22 14 14 18 25 28 24 29 26 22 16

GFSSW_500_spd_141.txt.gz
Wind_Speed
38 39 40 42 43 45 47 47 49 49 50 52 52 53 53 51 50 50 50 54 55 51 48 47 44 43 44 46 49 51 56 51 46 47 50 53 52 51 49 48 46 47 46 38 37
41 44 45 46 47 48 49 51 52 55 55 57 57 59 59 58 56 52 51 53 56 55 53 49 47 46 44 46 48 51 52 53 47 43 46 50 55 54 53 51 47 46 48 46 43
41 43 45 47 50 53 55 57 58 60 62 64 63 62 62 62 60 58 54 55 56 57 55 54 51 49 48 46 46 48 48 51 50 47 45 48 54 58 57 55 50 48 46 48 45
48 51 54 56 59 62 65 66 67 67 69 69 71 73 69 64 63 62 59 58 59 58 57 56 56 52 51 48 47 47 48 48 52 50 47 48 51 59 60 60 53 49 48 47 48
55 59 63 69 73 75 75 75 75 78 78 78 77 78 78 73 63 66 64 62 61 60 59 57 57 54 53 50 49 47 48 49 49 49 49 49 50 56 59 62 59 52 50 49 48
61 66 74 80 83 88 88 85 82 76 73 79 84 85 84 79 70 71 68 67 63 62 62 59 57 57 54 53 51 49 49 51 49 50 51 49 51 53 57 58 61 59 54 52 49
72 76 84 91 95 90 85 72 61 58 60 67 73 82 88 79 78 76 76 71 68 64 63 62 60 59 59 55 54 52 51 52 51 50 51 49 51 52 55 57 58 58 60 55 51
77 84 91 90 85 71 51 37 36 34 36 35 41 51 65 74 75 82 78 75 72 67 65 65 62 60 60 58 56 56 53 51 51 52 51 50 47 53 55 56 56 55 55 58 55
85 90 89 76 59 38 39 40 40 44 47 48 47 48 42 48 55 72 79 77 74 69 65 65 65 63 61 59 57 57 52 48 48 51 51 49 48 51 55 57 55 54 53 53 55
92 91 71 48 39 42 44 46 46 43 39 41 45 47 47 47 48 50 66 70 72 70 68 67 67 64 64 62 58 59 56 50 48 49 50 50 49 48 51 54 55 54 52 51 51
99 75 46 40 43 46 44 41 38 34 35 38 37 34 36 36 40 40 48 54 63 65 68 67 68 67 61 60 59 58 56 51 47 47 49 49 50 48 47 51 53 52 51 50 48
89 56 39 44 45 43 42 35 32 32 31 26 22 12 11 15 23 30 32 34 48 56 64 67 66 63 60 58 59 57 57 54 48 46 47 48 50 45 45 48 49 49 48 47 45
72 42 42 43 43 40 38 37 35 30 24 22 20 14 10 9 13 20 24 27 39 50 57 60 63 64 60 56 57 55 53 51 45 42 45 46 48 45 45 48 48 49 50 48 50
58 41 39 41 40 38 39 37 34 25 22 16 13 9 15 10 8 19 19 24 33 42 49 58 63 61 58 57 53 54 53 50 43 47 43 43 44 42 43 42 44 46 48 49 48
49 40 36 34 37 36 41 37 41 36 24 18 18 17 8 7 8 16 22 25 32 45 55 57 60 58 56 50 49 48 48 44 44 42 42 41 40 40 39 40 42 44 44 44 45
47 40 35 34 31 38 43 46 49 39 32 26 19 18 14 13 8 10 17 29 36 43 54 58 59 59 51 49 46 42 41 40 41 40 39 36 37 37 37 39 39 41 44 45 44
44 37 31 29 35 41 38 40 46 45 30 28 17 18 13 12 16 24 18 31 40 38 55 56 59 55 50 51 49 42 39 38 36 36 38 35 35 37 36 37 38 39 40 42 42
45 36 29 28 35 34 37 42 43 38 30 25 18 21 24 13 8 14 30 30 43 36 48 50 45 57 55 50 47 46 42 41 42 40 39 37 36 35 34 36 37 37 35 35 37
46 35 27 27 28 30 36 40 43 41 36 31 21 22 10 13 6 8 17 28 42 36 45 43 36 51 48 48 47 47 45 40 37 36 35 35 37 32 30 31 33 31 32 34 35
47 33 29 25 25 30 30 39 40 34 34 36 36 31 21 11 7 10 23 34 39 31 44 45 35 47 49 48 46 40 42 42 39 38 36 34 32 25 27 29 31 30 30 30 32
52 32 27 25 24 31 30 33 32 33 30 33 30 23 21 14 17 28 29 34 30 30 47 34 36 48 50 50 47 49 42 38 37 37 37 32 28 26 25 25 23 22 20 20 22
52 30 28 26 24 29 31 35 27 28 26 27 22 13 14 17 24 26 30 30 33 35 43 24 34 42 45 46 45 46 45 43 39 36 33 29 29 27 29 26 20 17 19 19 19
51 31 26 27 18 22 26 27 29 28 23 25 16 10 21 16 12 13 18 31 31 37 41 20 37 49 43 43 47 44 40 41 39 34 26 25 27 30 28 25 22 21 24 19 21
56 34 20 27 23 24 22 24 25 26 23 20 15 8 10 10 14 19 17 34 33 35 44 41 37 38 36 34 41 46 43 40 37 32 28 24 26 30 28 26 23 23 19 19 19
57 39 18 22 21 21 26 27 24 21 27 20 13 7 12 12 19 17 26 31 33 27 26 36 39 39 34 36 41 44 42 39 36 30 28 25 31 28 22 21 24 21 15 14 20
55 38 24 21 25 20 23 25 29 27 29 19 13 7 8 14 14 25 29 33 34 29 28 32 39 34 34 30 33 36 36 31 30 30 27 28 30 28 23 18 16 22 19 21 23
55 36 26 19 21 20 21 24 31 30 25 20 13 9 10 11 16 25 29 33 30 27 20 33 31 35 32 31 31 31 30 29 26 26 26 27 27 27 24 23 17 15 20 27 25

GFSSW_500_spd_144.txt.gz
Wind_Speed
32 33 35 38 41 42 44 45 47 50 52 54 54 53 51 52 53 55 55 55 57 54 51 50 46 45 45 42 42 44 49 54 52 49 49 54 55 53 52 47 46 46 44 33 29
37 39 41 43 46 49 52 55 59 60 58 57 58 58 60 59 56 57 58 58 57 56 57 55 53 48 46 46 44 44 44 48 54 53 48 54 53 58 52 51 47 47 46 44 38
44 45 48 53 56 60 64 68 72 72 71 70 69 69 69 65 65 62 60 61 61 59 56 57 57 55 51 48 46 44 42 47 54 55 48 50 51 61 55 55 51 49 47 45 46
50 53 57 61 66 71 76 82 85 87 87 83 78 76 76 71 72 69 64 63 63 62 59 58 57 57 56 52 50 47 47 48 50 51 49 51 51 55 60 58 56 50 48 47 46
56 60 65 72 77 83 91 86 81 79 77 73 71 76 82 82 76 78 72 69 66 64 61 60 59 58 56 54 51 49 48 48 47 47 50 53 52 53 59 63 56 52 50 49 48
63 69 76 81 88 95 76 59 46 41 37 40 48 63 70 75 80 82 74 73 69 67 66 64 62 61 59 57 53 50 50 49 48 47 50 53 53 54 55 61 60 57 52 51 49
70 77 81 85 90 64 48 42 40 39 41 42 42 38 40 48 63 77 78 73 73 70 68 67 65 62 59 59 56 54 53 50 50 50 51 51 55 54 54 55 59 59 57 52 50
75 80 83 89 61 38 32 33 39 40 39 40 44 45 44 42 43 43 63 72 72 71 68 68 68 65 60 59 58 56 54 53 51 51 53 49 49 54 57 54 57 58 59 57 52
77 81 92 62 37 32 34 37 39 39 40 41 38 38 39 42 45 43 39 50 66 67 68 67 68 65 66 62 59 59 53 53 53 51 51 51 51 55 55 55 54 55 55 56 57
80 88 75 42 33 35 39 40 42 40 43 38 32 31 29 31 39 44 46 42 52 64 68 69 67 67 67 64 59 59 56 55 53 51 51 52 50 52 53 55 54 53 51 51 53
83 86 58 32 35 30 35 42 42 39 38 33 27 28 24 24 23 35 40 41 43 56 66 68 70 69 63 61 59 56 58 56 55 52 51 50 50 51 50 55 54 53 52 49 47
83 80 47 31 30 32 36 37 36 35 31 28 22 24 20 13 10 16 22 27 36 44 61 66 70 67 63 63 61 61 61 59 51 49 47 48 46 47 49 51 50 49 49 47 44
82 76 44 30 31 32 39 37 40 41 27 23 21 20 16 13 8 7 16 23 31 45 56 62 64 66 66 64 59 61 57 57 52 51 46 48 47 45 47 48 48 48 48 46 44
84 72 43 30 25 32 37 36 43 39 29 22 21 18 15 11 8 6 15 25 26 39 47 56 62 64 67 64 58 60 57 55 48 48 47 45 44 45 44 47 48 46 44 43 43
84 66 36 27 23 35 35 39 44 40 32 26 18 16 12 11 7 4 13 23 25 34 56 60 62 65 62 57 56 59 55 52 46 43 45 44 42 43 44 44 43 43 44 42 39
83 61 36 26 24 32 32 41 43 42 31 28 20 12 14 9 11 5 6 22 29 28 45 52 58 61 60 57 54 57 51 47 43 44 48 43 42 46 40 39 39 39 40 39 38
82 62 34 29 26 30 31 39 40 39 35 29 21 17 17 13 11 13 9 20 29 29 36 47 57 49 60 59 53 53 47 45 41 44 39 45 41 33 38 38 36 34 34 35 35
80 59 33 31 27 29 35 36 37 35 34 31 20 18 16 4 11 16 18 18 31 29 28 50 52 47 58 54 54 52 45 45 48 46 44 45 41 44 36 34 33 32 31 32 34
78 58 31 33 30 30 36 35 34 33 33 33 30 29 18 9 8 9 23 18 30 26 27 42 49 47 43 49 48 48 46 34 29 29 42 41 41 40 36 34 33 32 31 31 32
78 57 32 30 30 30 32 32 31 35 30 28 31 29 23 12 7 7 20 29 30 28 24 35 40 44 46 49 47 43 47 47 40 36 25 37 37 35 32 32 33 32 31 31 30
78 59 32 28 29 29 29 27 30 32 26 24 22 23 21 18 10 8 15 26 37 26 39 38 34 43 52 56 52 53 49 45 32 31 25 38 30 37 36 34 31 27 27 27 28
77 57 31 25 26 25 28 31 29 26 26 20 14 13 18 20 22 25 25 32 23 40 41 24 32 44 51 44 49 48 45 43 39 37 30 29 36 32 32 30 28 27 26 28 31
75 53 33 22 22 22 26 30 30 26 22 19 15 14 13 12 19 19 23 22 33 43 22 40 41 50 46 44 51 48 47 44 39 36 26 29 31 30 30 30 26 23 24 25 24
74 53 34 22 25 25 28 30 30 31 21 16 15 16 18 8 8 22 24 26 44 41 17 34 26 41 41 33 39 47 48 46 39 29 22 26 29 30 29 26 22 21 21 19 18
73 60 36 19 22 23 27 29 35 36 21 15 14 17 20 15 11 25 29 26 28 19 39 34 40 31 34 39 45 49 47 47 41 30 18 26 26 29 28 25 20 17 15 15 14
72 63 40 23 23 24 22 21 29 40 20 15 15 16 14 12 14 20 17 21 19 28 38 33 38 34 37 42 45 49 46 46 42 33 31 30 31 30 28 24 20 17 18 16 13
71 60 42 24 20 23 21 21 28 33 19 18 14 11 14 16 13 16 24 20 19 29 31 31 38 32 36 36 38 37 37 36 34 33 31 26 32 31 26 22 20 18 18 21 20